Home > Weather > Sarh > Past weeks

Flag for Chad Past Weather in Sarh, Chad — Yesterday and Last 2 Weeks

Now
72 °F

Thunderstorms. Passing clouds.


Feels Like: 67 °F
Forecast: 69 / 84 °F
Wind: 9 mph from West

Location: Sarh Airport

Current Time: Jul 29, 2016 at 1:18:53 AM

Latest Report: Jul 29, 2016 at 12:00 AM


Visibility: N/A

Pressure: 29.89 "Hg

Humidity: 94%

Dew Point: 70 °F

Location of SarhLocation

Past Weather in Sarh — Graph

°F

Sarh Temperature Yesterday

Maximum temperature yesterday: 90 °F (at 1:00 PM)
Minimum temperature yesterday: 72 °F (at 10:00 PM)
Average temperature yesterday: 82 °F

High & Low Weather Summary for the Past Weeks

 TemperatureHumidityPressure
High93 °F (Jul 17, 2:00 PM)100% (Jul 14, 5:00 AM)30.04 "Hg (Jul 14, 5:00 AM)
Low70 °F (Jul 23, 6:00 AM)21% (Jul 27, 8:00 PM)29.80 "Hg (Jul 25, 5:00 PM)
Average79 °F81%29.93 "Hg
* Reported Jul 14 12:00 AM — Jul 29 12:00 AM, Sarh, Weather by CustomWeather, © 2016

Note: Actual official high and low records may vary slightly from our data, if they occured in-between our weather recording intervals... More about our weather records

Advertising

Sarh Weather History for the Previous 24 Hours

Scroll right to see more
 ConditionsComfort  
Time TempWeatherWind HumidityBarometerVisibility
12:00 AM
Fri, Jul 29
72 °FThunderstorms. Passing clouds.9 mph94%29.89 "HgN/A
11:00 PM
Thu, Jul 28
72 °FThunderstorms. Passing clouds.No wind94%29.92 "HgN/A
10:00 PM72 °FThunderstorms. Passing clouds.5 mph94%29.92 "HgN/A
9:00 PM84 °FThunderstorms. Passing clouds.No wind74%29.92 "HgN/A
8:00 PM84 °FThunderstorms. Passing clouds.No wind74%29.92 "HgN/A
7:00 PM84 °FThunderstorms. Passing clouds.No wind79%29.92 "HgN/A
6:00 PM84 °FThunderstorms. Passing clouds.No wind74%29.89 "HgN/A
5:00 PM88 °FPassing clouds.7 mph62%29.89 "HgN/A
4:00 PM88 °FScattered clouds.5 mph89%29.83 "HgN/A
3:00 PM88 °FPartly sunny.7 mph62%29.89 "HgN/A
1:00 PM90 °FPartly sunny.5 mph63%29.89 "HgN/A
12:00 PM88 °FPartly sunny.5 mph62%29.92 "HgN/A
11:00 AM86 °FPartly sunny.5 mph70%29.95 "HgN/A
10:00 AM86 °FPassing clouds.5 mph66%29.95 "HgN/A
9:00 AM82 °FSunny.7 mph79%29.95 "Hg10 mi
8:00 AM77 °FSunny.No wind94%29.95 "Hg10 mi
7:00 AM77 °FSunny.No wind94%29.98 "Hg10 mi
5:00 AM75 °FClear.No wind100%29.95 "Hg10 mi
4:00 AM75 °FClear.No wind100%29.92 "Hg10 mi
1:00 AM77 °FClear.No wind94%29.95 "Hg10 mi
Weather by CustomWeather, © 2016

See weather overviewHow to use our weather pages